Starlink 3781

operational
NORAD ID: 52272 Int'l Des: 2022-041 Owner: SPXS Country: US Constellation: starlink
LEOCIRCULAR

关于 Starlink 3781

正在加载描述...

实时位置

正在加载3D地球...

即将过境

高度历史

Altitude vs Time

uPlot chart will show altitude changes over time

两行轨道根数

1 52272U 22041M 25343.46447138 .00000869 00000-0 72683-4 0 9994
2 52272 53.2169 154.1975 0001590 90.5590 269.5585 15.08837852200741
Epoch: Dec 9, 2025 • Age: 11 hours

当前状态

高度 546.8 km
速度 7.59 km/s
星下点 -22.71°S, 82.87°E
发射日期 Apr 21, 2022
运行时间 3.6 years
类型 internet

技术详情

分类 Payload
质量 297.00 kg
干质量 275.00 kg
总质量 297.00 kg
长度 0.20 m
直径 2.80 m
跨度 9.00 m
形状 Box + pan
制造商 SPXS
平台类型 Starlink
阶段状态 In Orbit
所有者/国家 SPXS/US

大型星座

Loading constellations...